SKYSAT-C8

Last updated on Sat Jul 05 2025 00:02:29 GMT+0000 (Coordinated Universal Time)

1 42990U 17068D 25185.32149316 .00051180 00000+0 16705-2 0 9991 2 42990 97.4108 315.0153 0001587 131.8001 228.3377 15.31598022428998
UTC large
Height (km)
Speed (km/s)
/
Latitude / Longitude
Inclination (degrees)
Orbital Period (minutes)
Azimuth
Elevation
Range (km)
Doppler Factor

Next 0 passes for location: London (51.5072 / 0.1276)

Sorry there are no passes over London.